| time (UTC) | temp F | wind direction | speed MPH | gust MPH | rain 1hr in | rain 24hr in | rain mn in | humidity % | barometer mb |
| 20260509131451 | 58 | 184 | 1.0 | 1.0 | 0.00 | 0.00 | 0.00 | 82 | 1012.0 |
| 20260509130311 | 58 | 180 | 1.0 | 3.0 | 0.00 | 0.00 | 0.00 | 82 | 1012.0 |
| 20260509125810 | 58 | 197 | 1.0 | 3.0 | 0.00 | 0.00 | 0.00 | 82 | 1011.9 |
| 20260509125312 | 58 | 197 | 1.0 | 2.0 | 0.00 | 0.00 | 0.00 | 82 | 1011.9 |
| 20260509124809 | 58 | 188 | 1.0 | 2.0 | 0.00 | 0.00 | 0.00 | 82 | 1012.0 |
| 20260509124310 | 58 | 178 | 1.0 | 3.0 | 0.00 | 0.00 | 0.00 | 82 | 1011.9 |
| 20260509123747 | 58 | 166 | 1.0 | 3.0 | 0.00 | 0.00 | 0.00 | 82 | 1011.9 |
| 20260509123249 | 58 | 178 | 1.0 | 0.0 | 0.00 | 0.00 | 0.00 | 82 | 1011.9 |
| 20260509122117 | 58 | 184 | 2.0 | 5.0 | 0.00 | 0.00 | 0.00 | 82 | 1011.7 |
| 20260509121623 | 58 | 217 | 1.0 | 5.0 | 0.00 | 0.00 | 0.00 | 82 | 1011.9 |
| 20260509121618 | 58 | 206 | 1.0 | 4.0 | 0.00 | 0.00 | 0.00 | 82 | 1011.8 |
| 20260509120618 | 58 | 206 | 2.0 | 5.0 | 0.00 | 0.00 | 0.00 | 82 | 1011.9 |
| 20260509120121 | 58 | 207 | 2.0 | 4.0 | 0.00 | 0.00 | 0.00 | 82 | 1011.9 |
| 20260509115614 | 58 | 199 | 2.0 | 4.0 | 0.00 | 0.00 | 0.00 | 82 | 1011.9 |
| 20260509115115 | 59 | 207 | 2.0 | 0.0 | 0.00 | 0.00 | 0.00 | 82 | 1011.8 |
| 20260509113608 | 59 | 199 | 2.0 | 3.0 | 0.00 | 0.00 | 0.00 | 81 | 1011.8 |
| 20260509112429 | 59 | 199 | 2.0 | 5.0 | 0.00 | 0.00 | 0.00 | 81 | 1011.7 |
| 20260509111928 | 59 | 194 | 2.0 | 5.0 | 0.00 | 0.00 | 0.00 | 82 | 1011.7 |
| 20260509111431 | 59 | 205 | 3.0 | 5.0 | 0.00 | 0.00 | 0.00 | 82 | 1011.7 |
| 20260509111427 | 59 | 213 | 3.0 | 5.0 | 0.00 | 0.00 | 0.00 | 82 | 1011.7 |
| 20260509110427 | 59 | 211 | 3.0 | 5.0 | 0.00 | 0.00 | 0.00 | 82 | 1011.7 |
| 20260509105928 | 60 | 203 | 3.0 | 5.0 | 0.00 | 0.00 | 0.00 | 82 | 1011.7 |
| 20260509105427 | 60 | 205 | 2.0 | 3.0 | 0.00 | 0.00 | 0.00 | 82 | 1011.7 |
| 20260509104238 | 60 | 198 | 3.0 | 5.0 | 0.00 | 0.00 | 0.00 | 82 | 1011.7 |
| 20260509103735 | 60 | 220 | 3.0 | 5.0 | 0.00 | 0.00 | 0.00 | 82 | 1011.8 |
| 20260509103234 | 60 | 186 | 2.0 | 5.0 | 0.00 | 0.00 | 0.00 | 82 | 1011.8 |
| 20260509102737 | 60 | 190 | 1.0 | 4.0 | 0.00 | 0.00 | 0.00 | 82 | 1011.8 |
| 20260509102231 | 60 | 196 | 1.0 | 3.0 | 0.00 | 0.00 | 0.00 | 82 | 1011.9 |
| 20260509101729 | 60 | 192 | 0.0 | 2.0 | 0.00 | 0.00 | 0.00 | 82 | 1011.9 |
| 20260509101223 | 60 | 200 | 0.0 | 0.0 | 0.00 | 0.00 | 0.00 | 82 | 1011.9 |
| 20260509100554 | 60 | 205 | 2.0 | 4.0 | 0.00 | 0.00 | 0.00 | 82 | 1011.8 |
| 20260509095535 | 61 | 184 | 2.0 | 5.0 | 0.00 | 0.00 | 0.00 | 82 | 1011.9 |
| 20260509095531 | 60 | 207 | 2.0 | 5.0 | 0.00 | 0.00 | 0.00 | 82 | 1011.8 |
| 20260509094531 | 61 | 197 | 2.0 | 4.0 | 0.00 | 0.00 | 0.00 | 82 | 1011.9 |
| 20260509094029 | 61 | 191 | 1.0 | 3.0 | 0.00 | 0.00 | 0.00 | 81 | 1011.9 |
| 20260509093527 | 61 | 217 | 1.0 | 3.0 | 0.00 | 0.00 | 0.00 | 82 | 1011.9 |
| 20260509093023 | 61 | 207 | 1.0 | 2.0 | 0.00 | 0.00 | 0.00 | 82 | 1011.9 |
| 20260509091653 | 62 | 201 | 2.0 | 4.0 | 0.00 | 0.00 | 0.00 | 82 | 1012.0 |
| 20260509091158 | 62 | 202 | 2.0 | 2.0 | 0.00 | 0.00 | 0.00 | 82 | 1012.0 |
| 20260509085553 | 62 | 203 | 1.0 | 3.0 | 0.00 | 0.00 | 0.00 | 82 | 1012.1 |
| 20260509085051 | 63 | 192 | 1.0 | 3.0 | 0.00 | 0.00 | 0.00 | 83 | 1012.1 |
| 20260509084553 | 63 | 213 | 0.0 | 2.0 | 0.00 | 0.00 | 0.00 | 83 | 1012.2 |
| 20260509084052 | 63 | 214 | 0.0 | 2.0 | 0.00 | 0.00 | 0.00 | 83 | 1012.2 |
| 20260509083552 | 63 | 185 | 0.0 | 1.0 | 0.00 | 0.00 | 0.00 | 82 | 1012.2 |
| 20260509083546 | 63 | 172 | 0.0 | 2.0 | 0.00 | 0.00 | 0.00 | 82 | 1012.2 |
| 20260509081856 | 64 | 173 | 0.0 | 2.0 | 0.00 | 0.00 | 0.00 | 81 | 1012.5 |
| 20260509081400 | 64 | 184 | 1.0 | 3.0 | 0.00 | 0.00 | 0.00 | 81 | 1012.6 |
| 20260509080850 | 64 | 197 | 1.0 | 3.0 | 0.00 | 0.00 | 0.00 | 80 | 1012.6 |
| 20260509080348 | 64 | 181 | 1.0 | 4.0 | 0.00 | 0.00 | 0.00 | 80 | 1012.6 |
| 20260509075849 | 64 | 204 | 1.0 | 4.0 | 0.00 | 0.00 | 0.00 | 80 | 1012.7 |
| 20260509075347 | 65 | 203 | 1.0 | 5.0 | 0.00 | 0.00 | 0.00 | 79 | 1012.7 |
| 20260509074842 | 65 | 207 | 0.0 | 5.0 | 0.00 | 0.00 | 0.00 | 79 | 1012.7 |
| 20260509074339 | 65 | 197 | 0.0 | 0.0 | 0.00 | 0.00 | 0.00 | 78 | 1012.7 |
| 20260509073156 | 65 | 199 | 0.0 | 0.0 | 0.00 | 0.00 | 0.00 | 78 | 1012.7 |
| 20260509072657 | 65 | 196 | 0.0 | 0.0 | 0.00 | 0.00 | 0.00 | 78 | 1012.7 |
| 20260509072155 | 66 | 202 | 0.0 | 0.0 | 0.00 | 0.00 | 0.00 | 77 | 1012.6 |
| 20260509071627 | 66 | 201 | 0.0 | 0.0 | 0.00 | 0.00 | 0.00 | 77 | 1012.6 |
| 20260509071127 | 66 | 183 | 0.0 | 0.0 | 0.00 | 0.00 | 0.00 | 77 | 1012.6 |
| 20260509070701 | 66 | 180 | 1.0 | 3.0 | 0.00 | 0.00 | 0.00 | 76 | 1012.6 |
| 20260509065205 | 66 | 180 | 0.0 | 2.0 | 0.00 | 0.00 | 0.00 | 76 | 1012.7 |
| 20260509065200 | 66 | 179 | 0.0 | 3.0 | 0.00 | 0.00 | 0.00 | 76 | 1012.5 |
| 20260509064202 | 67 | 207 | 0.0 | 4.0 | 0.00 | 0.00 | 0.00 | 75 | 1012.7 |
| 20260509063655 | 67 | 171 | 1.0 | 4.0 | 0.00 | 0.00 | 0.00 | 75 | 1012.7 |
| 20260509063156 | 67 | 173 | 1.0 | 3.0 | 0.00 | 0.00 | 0.00 | 74 | 1012.7 |
| 20260509062640 | 67 | 205 | 0.0 | 1.0 | 0.00 | 0.00 | 0.00 | 74 | 1012.8 |
| 20260509061110 | 68 | 192 | 0.0 | 1.0 | 0.00 | 0.00 | 0.00 | 74 | 1012.8 |
| 20260509060223 | 68 | 205 | 1.0 | 4.0 | 0.00 | 0.00 | 0.00 | 73 | 1012.8 |
| 20260509055208 | 69 | 200 | 2.0 | 4.0 | 0.00 | 0.00 | 0.00 | 73 | 1012.8 |
| 20260509054713 | 69 | 224 | 2.0 | 4.0 | 0.00 | 0.00 | 0.00 | 72 | 1012.8 |
| 20260509054707 | 69 | 209 | 2.0 | 4.0 | 0.00 | 0.00 | 0.00 | 72 | 1012.8 |
| 20260509053703 | 69 | 211 | 2.0 | 2.0 | 0.00 | 0.00 | 0.00 | 71 | 1012.9 |
| 20260509052612 | 70 | 194 | 1.0 | 3.0 | 0.00 | 0.00 | 0.00 | 70 | 1012.8 |
| 20260509052111 | 70 | 186 | 1.0 | 4.0 | 0.00 | 0.00 | 0.00 | 70 | 1012.6 |
| 20260509051617 | 70 | 184 | 2.0 | 4.0 | 0.00 | 0.00 | 0.00 | 69 | 1012.7 |
| 20260509051110 | 71 | 175 | 1.0 | 4.0 | 0.00 | 0.00 | 0.00 | 69 | 1012.7 |
| 20260509050609 | 71 | 201 | 1.0 | 3.0 | 0.00 | 0.00 | 0.00 | 68 | 1012.7 |
| 20260509050109 | 71 | 209 | 1.0 | 3.0 | 0.00 | 0.00 | 0.00 | 68 | 1012.7 |
| 20260509045607 | 71 | 207 | 1.0 | 3.0 | 0.00 | 0.00 | 0.00 | 67 | 1012.7 |
| 20260509045111 | 73 | 225 | 0.0 | 3.0 | 0.00 | 0.00 | 0.00 | 65 | 1012.8 |
| 20260509045107 | 72 | 214 | 1.0 | 3.0 | 0.00 | 0.00 | 0.00 | 67 | 1012.7 |
| 20260509044814 | 72 | 225 | 0.0 | 2.0 | 0.00 | 0.00 | 0.00 | 66 | 1012.8 |
| 20260509043600 | 73 | 225 | 0.0 | 3.0 | 0.00 | 0.00 | 0.00 | 65 | 1012.8 |
| 20260509043052 | 73 | 227 | 1.0 | 4.0 | 0.00 | 0.00 | 0.00 | 64 | 1012.7 |
| 20260509042546 | 74 | 229 | 1.0 | 3.0 | 0.00 | 0.00 | 0.00 | 63 | 1012.7 |
| 20260509042048 | 74 | 236 | 2.0 | 5.0 | 0.00 | 0.00 | 0.00 | 63 | 1012.6 |
| 20260509041549 | 74 | 242 | 2.0 | 5.0 | 0.00 | 0.00 | 0.00 | 62 | 1012.5 |
| 20260509041043 | 75 | 234 | 2.0 | 5.0 | 0.00 | 0.00 | 0.00 | 62 | 1012.5 |
| 20260509040549 | 75 | 240 | 3.0 | 3.0 | 0.00 | 0.00 | 0.00 | 60 | 1012.5 |
| 20260509040543 | 75 | 240 | 3.0 | 5.0 | 0.00 | 0.00 | 0.00 | 61 | 1012.5 |
| 20260509034819 | 77 | 213 | 1.0 | 6.0 | 0.00 | 0.00 | 0.00 | 57 | 1012.3 |
| 20260509034317 | 77 | 213 | 0.0 | 0.0 | 0.00 | 0.00 | 0.00 | 53 | 1012.5 |
| 20260509033807 | 78 | 57 | 0.0 | 0.0 | 0.00 | 0.00 | 0.00 | 51 | 1012.3 |
| 20260509033307 | 78 | 57 | 0.0 | 0.0 | 0.00 | 0.00 | 0.00 | 52 | 1012.5 |
| 20260509033235 | 78 | 57 | 0.0 | 0.0 | 0.00 | 0.00 | 0.00 | 51 | 1012.5 |
| 20260509032723 | 79 | 57 | 0.0 | 0.0 | 0.00 | 0.00 | 0.00 | 50 | 1012.3 |
| 20260509031719 | 79 | 57 | 0.0 | 0.0 | 0.00 | 0.00 | 0.00 | 50 | 1012.5 |
| 20260509031714 | 79 | 57 | 0.0 | 0.0 | 0.00 | 0.00 | 0.00 | 50 | 1012.5 |
| 20260509030712 | 80 | 57 | 0.0 | 0.0 | 0.00 | 0.00 | 0.00 | 49 | 1012.5 |
| 20260509030202 | 80 | 57 | 0.0 | 0.0 | 0.00 | 0.00 | 0.00 | 48 | 1012.3 |
| 20260509025700 | 80 | 57 | 0.0 | 0.0 | 0.00 | 0.00 | 0.00 | 47 | 1012.3 |
| 20260509025653 | 80 | 57 | 0.0 | 0.0 | 0.00 | 0.00 | 0.00 | 46 | 1012.3 |
| 20260509024640 | 81 | 57 | 0.0 | 1.0 | 0.00 | 0.00 | 0.00 | 45 | 1012.3 |
| 20260509024123 | 81 | 57 | 0.0 | 1.0 | 0.00 | 0.00 | 0.00 | 45 | 1012.3 |
| 20260509023622 | 81 | 57 | 0.0 | 1.0 | 0.00 | 0.00 | 0.00 | 45 | 1012.3 |
| 20260509023617 | 82 | 57 | 0.0 | 1.0 | 0.00 | 0.00 | 0.00 | 44 | 1012.3 |
| 20260509023330 | 82 | 57 | 1.0 | 0.0 | 0.00 | 0.00 | 0.00 | 44 | 1012.5 |
| 20260509021445 | 82 | 61 | 1.0 | 4.0 | 0.00 | 0.00 | 0.00 | 43 | 1012.3 |
| 20260509020923 | 83 | 61 | 1.0 | 5.0 | 0.00 | 0.00 | 0.00 | 43 | 1012.2 |
| 20260509020423 | 83 | 45 | 1.0 | 5.0 | 0.00 | 0.00 | 0.00 | 42 | 1012.3 |
| 20260509015922 | 83 | 47 | 0.0 | 3.0 | 0.00 | 0.00 | 0.00 | 42 | 1012.2 |
| 20260509015423 | 83 | 28 | 1.0 | 6.0 | 0.00 | 0.00 | 0.00 | 40 | 1012.3 |
| 20260509014922 | 83 | 27 | 1.0 | 6.0 | 0.00 | 0.00 | 0.00 | 40 | 1012.3 |
| 20260509014423 | 83 | 57 | 1.0 | 4.0 | 0.00 | 0.00 | 0.00 | 42 | 1012.5 |
| 20260509013919 | 83 | 62 | 2.0 | 5.0 | 0.00 | 0.00 | 0.00 | 42 | 1012.6 |
| 20260509013416 | 84 | 34 | 3.0 | 6.0 | 0.00 | 0.00 | 0.00 | 41 | 1012.6 |
| 20260509012903 | 84 | 42 | 2.0 | 6.0 | 0.00 | 0.00 | 0.00 | 42 | 1012.7 |
| 20260509012407 | 84 | 42 | 1.0 | 5.0 | 0.00 | 0.00 | 0.00 | 42 | 1012.8 |
| 20260509011901 | 84 | 307 | 2.0 | 5.0 | 0.00 | 0.00 | 0.00 | 42 | 1012.8 |
| 20260509011404 | 85 | 31 | 2.0 | 1.0 | 0.00 | 0.00 | 0.00 | 44 | 1012.7 |
| 20260509010110 | 85 | 5 | 2.0 | 9.0 | 0.00 | 0.00 | 0.00 | 44 | 1012.7 |
| 20260509005611 | 85 | 339 | 2.0 | 9.0 | 0.00 | 0.00 | 0.00 | 44 | 1012.9 |
| 20260509005112 | 85 | 48 | 3.0 | 11.0 | 0.00 | 0.00 | 0.00 | 44 | 1012.8 |
| 20260509004607 | 86 | 355 | 2.0 | 11.0 | 0.00 | 0.00 | 0.00 | 43 | 1012.8 |
| 20260509004104 | 86 | 70 | 1.0 | 4.0 | 0.00 | 0.00 | 0.00 | 40 | 1012.9 |
| 20260509003016 | 87 | 5 | 1.0 | 5.0 | 0.00 | 0.00 | 0.00 | 40 | 1013.1 |
| 20260509002531 | 87 | 247 | 2.0 | 5.0 | 0.00 | 0.00 | 0.00 | 40 | 1013.1 |
| 20260509002018 | 87 | 26 | 2.0 | 0.0 | 0.00 | 0.00 | 0.00 | 41 | 1013.1 |
| 20260509001730 | 87 | 269 | 1.0 | 5.0 | 0.00 | 0.00 | 0.00 | 42 | 1013.2 |
| 20260509001252 | 87 | 241 | 1.0 | 3.0 | 0.00 | 0.00 | 0.00 | 41 | 1013.2 |
| 20260509000213 | 87 | 238 | 1.0 | 3.0 | 0.00 | 0.00 | 0.00 | 42 | 1013.2 |
| 20260508235210 | 87 | 41 | 1.0 | 0.0 | 0.00 | 0.00 | 0.00 | 40 | 1013.1 |
| 20260508234857 | 86 | 241 | 0.0 | 3.0 | 0.00 | 0.00 | 0.00 | 41 | 1013.2 |
| 20260508233342 | 86 | 69 | 0.0 | 4.0 | 0.00 | 0.00 | 0.00 | 42 | 1013.3 |
| 20260508232822 | 87 | 69 | 1.0 | 4.0 | 0.00 | 0.00 | 0.00 | 41 | 1013.4 |
| 20260508232317 | 86 | 24 | 1.0 | 5.0 | 0.00 | 0.00 | 0.00 | 42 | 1013.5 |
| 20260508231811 | 86 | 69 | 2.0 | 5.0 | 0.00 | 0.00 | 0.00 | 40 | 1013.5 |
| 20260508231303 | 86 | 5 | 1.0 | 4.0 | 0.00 | 0.00 | 0.00 | 43 | 1013.5 |
| 20260508230807 | 87 | 24 | 1.0 | 4.0 | 0.00 | 0.00 | 0.00 | 42 | 1013.6 |
| 20260508230304 | 86 | 237 | 0.0 | 4.0 | 0.00 | 0.00 | 0.00 | 43 | 1013.6 |
| 20260508225811 | 85 | 252 | 2.0 | 6.0 | 0.00 | 0.00 | 0.00 | 43 | 1013.8 |
| 20260508225807 | 86 | 5 | 1.0 | 4.0 | 0.00 | 0.00 | 0.00 | 42 | 1013.7 |
| 20260508224801 | 85 | 48 | 2.0 | 6.0 | 0.00 | 0.00 | 0.00 | 44 | 1013.8 |
| 20260508224304 | 85 | 64 | 1.0 | 6.0 | 0.00 | 0.00 | 0.00 | 45 | 1014.0 |
| 20260508223811 | 85 | 66 | 2.0 | 7.0 | 0.00 | 0.00 | 0.00 | 46 | 1014.4 |
| 20260508223807 | 85 | 13 | 2.0 | 6.0 | 0.00 | 0.00 | 0.00 | 46 | 1014.1 |
| 20260508223301 | 85 | 35 | 2.0 | 6.0 | 0.00 | 0.00 | 0.00 | 45 | 1014.2 |
| 20260508222301 | 85 | 71 | 3.0 | 7.0 | 0.00 | 0.00 | 0.00 | 45 | 1014.4 |
| 20260508221759 | 84 | 34 | 2.0 | 7.0 | 0.00 | 0.00 | 0.00 | 47 | 1014.2 |
| 20260508221302 | 84 | 57 | 2.0 | 4.0 | 0.00 | 0.00 | 0.00 | 48 | 1014.4 |
| 20260508220310 | 85 | 355 | 1.0 | 7.0 | 0.00 | 0.00 | 0.00 | 47 | 1014.9 |
| 20260508220015 | 84 | 252 | 2.0 | 7.0 | 0.00 | 0.00 | 0.00 | 46 | 1014.7 |
| 20260508214804 | 84 | 239 | 2.0 | 6.0 | 0.00 | 0.00 | 0.00 | 46 | 1014.8 |
| 20260508214312 | 83 | 243 | 2.0 | 7.0 | 0.00 | 0.00 | 0.00 | 45 | 1015.2 |
| 20260508214307 | 83 | 308 | 3.0 | 10.0 | 0.00 | 0.00 | 0.00 | 45 | 1014.9 |
| 20260508213801 | 83 | 42 | 3.0 | 10.0 | 0.00 | 0.00 | 0.00 | 46 | 1015.0 |
| 20260508213301 | 84 | 62 | 1.0 | 7.0 | 0.00 | 0.00 | 0.00 | 45 | 1015.2 |
| 20260508212301 | 82 | 49 | 2.0 | 7.0 | 0.00 | 0.00 | 0.00 | 46 | 1015.2 |
| 20260508211759 | 83 | 240 | 2.0 | 7.0 | 0.00 | 0.00 | 0.00 | 45 | 1015.3 |
| 20260508211300 | 84 | 10 | 2.0 | 5.0 | 0.00 | 0.00 | 0.00 | 44 | 1015.5 |
| 20260508210801 | 83 | 257 | 2.0 | 5.0 | 0.00 | 0.00 | 0.00 | 44 | 1015.5 |
| 20260508210302 | 82 | 38 | 2.0 | 7.0 | 0.00 | 0.00 | 0.00 | 45 | 1015.5 |
| 20260508210257 | 82 | 263 | 2.0 | 7.0 | 0.00 | 0.00 | 0.00 | 44 | 1015.4 |
| 20260508205259 | 82 | 221 | 3.0 | 4.0 | 0.00 | 0.00 | 0.00 | 46 | 1015.5 |
| 20260508203953 | 81 | 239 | 1.0 | 5.0 | 0.00 | 0.00 | 0.00 | 48 | 1015.6 |
| 20260508203454 | 80 | 217 | 1.0 | 4.0 | 0.00 | 0.00 | 0.00 | 49 | 1015.6 |
| 20260508202957 | 80 | 355 | 2.0 | 6.0 | 0.00 | 0.00 | 0.00 | 50 | 1015.7 |
| 20260508202952 | 79 | 229 | 1.0 | 5.0 | 0.00 | 0.00 | 0.00 | 49 | 1015.5 |
| 20260508201954 | 79 | 248 | 2.0 | 6.0 | 0.00 | 0.00 | 0.00 | 49 | 1015.6 |
| 20260508201948 | 78 | 23 | 2.0 | 7.0 | 0.00 | 0.00 | 0.00 | 48 | 1015.5 |
| 20260508200948 | 79 | 9 | 2.0 | 7.0 | 0.00 | 0.00 | 0.00 | 50 | 1015.5 |
| 20260508200449 | 80 | 232 | 1.0 | 5.0 | 0.00 | 0.00 | 0.00 | 50 | 1015.7 |
| 20260508195946 | 78 | 239 | 2.0 | 5.0 | 0.00 | 0.00 | 0.00 | 51 | 1015.7 |
| 20260508195450 | 78 | 243 | 2.0 | 1.0 | 0.00 | 0.00 | 0.00 | 50 | 1015.7 |
| 20260508194558 | 76 | 42 | 1.0 | 6.0 | 0.00 | 0.00 | 0.00 | 53 | 1015.9 |
| 20260508194304 | 77 | 220 | 2.0 | 6.0 | 0.00 | 0.00 | 0.00 | 51 | 1016.1 |
| 20260508193826 | 76 | 5 | 1.0 | 2.0 | 0.00 | 0.00 | 0.00 | 52 | 1016.0 |
| 20260508191840 | 77 | 257 | 2.0 | 6.0 | 0.00 | 0.00 | 0.00 | 53 | 1016.0 |
| 20260508191341 | 75 | 247 | 1.0 | 6.0 | 0.00 | 0.00 | 0.00 | 56 | 1016.0 |
| 20260508190841 | 76 | 239 | 2.0 | 6.0 | 0.00 | 0.00 | 0.00 | 56 | 1016.0 |
| 20260508190331 | 75 | 238 | 2.0 | 6.0 | 0.00 | 0.00 | 0.00 | 55 | 1016.1 |
| 20260508185824 | 74 | 257 | 2.0 | 5.0 | 0.00 | 0.00 | 0.00 | 56 | 1016.2 |
| 20260508185324 | 75 | 248 | 3.0 | 7.0 | 0.00 | 0.00 | 0.00 | 56 | 1016.3 |
| 20260508184827 | 74 | 239 | 2.0 | 7.0 | 0.00 | 0.00 | 0.00 | 56 | 1016.3 |
| 20260508184325 | 74 | 281 | 2.0 | 5.0 | 0.00 | 0.00 | 0.00 | 56 | 1016.3 |
| 20260508183825 | 74 | 211 | 2.0 | 5.0 | 0.00 | 0.00 | 0.00 | 58 | 1016.2 |
| 20260508183821 | 74 | 244 | 2.0 | 5.0 | 0.00 | 0.00 | 0.00 | 59 | 1016.2 |
| 20260508183551 | 73 | 221 | 2.0 | 5.0 | 0.00 | 0.00 | 0.00 | 60 | 1016.2 |
| 20260508182810 | 73 | 219 | 3.0 | 2.0 | 0.00 | 0.00 | 0.00 | 59 | 1016.2 |
| 20260508181427 | 73 | 277 | 2.0 | 6.0 | 0.00 | 0.00 | 0.00 | 61 | 1016.2 |
| 20260508180424 | 72 | 237 | 2.0 | 6.0 | 0.00 | 0.00 | 0.00 | 61 | 1016.3 |
| 20260508175923 | 72 | 153 | 2.0 | 4.0 | 0.00 | 0.00 | 0.00 | 62 | 1016.2 |
| 20260508175421 | 72 | 196 | 2.0 | 6.0 | 0.00 | 0.00 | 0.00 | 62 | 1016.3 |
| 20260508174920 | 71 | 242 | 2.0 | 6.0 | 0.00 | 0.00 | 0.00 | 62 | 1016.1 |
| 20260508174416 | 70 | 248 | 3.0 | 5.0 | 0.00 | 0.00 | 0.00 | 63 | 1016.2 |
| 20260508173906 | 70 | 230 | 3.0 | 1.0 | 0.00 | 0.00 | 0.00 | 64 | 1016.1 |
| 20260508172704 | 69 | 252 | 3.0 | 5.0 | 0.00 | 0.00 | 0.00 | 65 | 1016.2 |
| 20260508172159 | 68 | 249 | 2.0 | 6.0 | 0.00 | 0.00 | 0.00 | 66 | 1016.3 |
| 20260508171658 | 68 | 247 | 2.0 | 5.0 | 0.00 | 0.00 | 0.00 | 66 | 1016.2 |
| 20260508171654 | 69 | 223 | 2.0 | 6.0 | 0.00 | 0.00 | 0.00 | 65 | 1016.2 |
| 20260508171151 | 69 | 198 | 2.0 | 5.0 | 0.00 | 0.00 | 0.00 | 66 | 1016.2 |
| 20260508170153 | 68 | 243 | 2.0 | 5.0 | 0.00 | 0.00 | 0.00 | 67 | 1016.1 |
| 20260508165656 | 68 | 211 | 2.0 | 5.0 | 0.00 | 0.00 | 0.00 | 66 | 1016.2 |
| 20260508165158 | 68 | 173 | 2.0 | 5.0 | 0.00 | 0.00 | 0.00 | 68 | 1016.1 |
| 20260508164655 | 67 | 202 | 2.0 | 7.0 | 0.00 | 0.00 | 0.00 | 68 | 1016.0 |
| 20260508164646 | 67 | 194 | 2.0 | 5.0 | 0.00 | 0.00 | 0.00 | 68 | 1016.1 |
| 20260508164148 | 67 | 183 | 3.0 | 7.0 | 0.00 | 0.00 | 0.00 | 67 | 1016.1 |
| 20260508163146 | 67 | 260 | 2.0 | 5.0 | 0.00 | 0.00 | 0.00 | 69 | 1015.9 |
| 20260508162647 | 66 | 202 | 3.0 | 5.0 | 0.00 | 0.00 | 0.00 | 70 | 1015.9 |
| 20260508162149 | 65 | 229 | 2.0 | 3.0 | 0.00 | 0.00 | 0.00 | 71 | 1015.8 |
| 20260508160855 | 63 | 242 | 2.0 | 5.0 | 0.00 | 0.00 | 0.00 | 73 | 1015.8 |
| 20260508160850 | 65 | 242 | 3.0 | 5.0 | 0.00 | 0.00 | 0.00 | 71 | 1015.9 |
| 20260508155841 | 64 | 207 | 2.0 | 5.0 | 0.00 | 0.00 | 0.00 | 73 | 1016.0 |
| 20260508155344 | 62 | 227 | 3.0 | 6.0 | 0.00 | 0.00 | 0.00 | 76 | 1015.9 |
| 20260508155340 | 62 | 245 | 3.0 | 6.0 | 0.00 | 0.00 | 0.00 | 75 | 1015.8 |
| 20260508154338 | 62 | 207 | 3.0 | 6.0 | 0.00 | 0.00 | 0.00 | 76 | 1015.9 |
| 20260508153839 | 61 | 162 | 3.0 | 6.0 | 0.00 | 0.00 | 0.00 | 76 | 1015.9 |
| 20260508153337 | 61 | 219 | 2.0 | 6.0 | 0.00 | 0.00 | 0.00 | 77 | 1015.9 |
| 20260508152836 | 61 | 242 | 2.0 | 6.0 | 0.00 | 0.00 | 0.00 | 77 | 1015.9 |
| 20260508152341 | 60 | 187 | 1.0 | 5.0 | 0.00 | 0.00 | 0.00 | 79 | 1015.7 |
| 20260508152336 | 61 | 213 | 2.0 | 6.0 | 0.00 | 0.00 | 0.00 | 78 | 1015.8 |
| 20260508151337 | 59 | 169 | 2.0 | 6.0 | 0.00 | 0.00 | 0.00 | 82 | 1015.7 |
| 20260508151332 | 60 | 202 | 1.0 | 5.0 | 0.00 | 0.00 | 0.00 | 81 | 1015.7 |
| 20260508150332 | 59 | 199 | 2.0 | 6.0 | 0.00 | 0.00 | 0.00 | 83 | 1015.7 |
| 20260508145831 | 58 | 133 | 2.0 | 5.0 | 0.00 | 0.00 | 0.00 | 84 | 1015.6 |
| 20260508145333 | 57 | 198 | 3.0 | 5.0 | 0.00 | 0.00 | 0.00 | 88 | 1015.3 |
| 20260508145329 | 57 | 191 | 3.0 | 5.0 | 0.00 | 0.00 | 0.00 | 86 | 1015.6 |
| 20260508144329 | 56 | 207 | 2.0 | 5.0 | 0.00 | 0.00 | 0.00 | 89 | 1015.4 |
| 20260508143829 | 55 | 207 | 3.0 | 6.0 | 0.00 | 0.00 | 0.00 | 89 | 1015.2 |
| 20260508143329 | 55 | 200 | 4.0 | 8.0 | 0.00 | 0.00 | 0.00 | 89 | 1015.3 |
| 20260508142825 | 55 | 202 | 3.0 | 8.0 | 0.00 | 0.00 | 0.00 | 89 | 1015.3 |
| 20260508142326 | 55 | 198 | 2.0 | 6.0 | 0.00 | 0.00 | 0.00 | 88 | 1015.2 |
| 20260508141822 | 55 | 170 | 2.0 | 6.0 | 0.00 | 0.00 | 0.00 | 89 | 1015.2 |
| 20260508141324 | 55 | 183 | 2.0 | 2.0 | 0.00 | 0.00 | 0.00 | 89 | 1015.1 |
| 20260508140117 | 55 | 173 | 2.0 | 6.0 | 0.00 | 0.00 | 0.00 | 90 | 1015.0 |
| 20260508135616 | 54 | 190 | 3.0 | 6.0 | 0.00 | 0.00 | 0.00 | 90 | 1014.8 |
| 20260508135112 | 54 | 189 | 3.0 | 6.0 | 0.00 | 0.00 | 0.00 | 90 | 1014.7 |
| 20260508134613 | 53 | 184 | 3.0 | 6.0 | 0.00 | 0.00 | 0.00 | 90 | 1014.6 |
| 20260508134605 | 53 | 157 | 3.0 | 6.0 | 0.00 | 0.00 | 0.00 | 90 | 1014.6 |
| 20260508133605 | 53 | 204 | 3.0 | 7.0 | 0.00 | 0.00 | 0.00 | 90 | 1014.6 |
| 20260508133102 | 53 | 211 | 3.0 | 7.0 | 0.00 | 0.00 | 0.00 | 90 | 1014.6 |
| 20260508132603 | 53 | 212 | 3.0 | 6.0 | 0.00 | 0.00 | 0.00 | 90 | 1014.7 |
| 20260508132103 | 53 | 200 | 3.0 | 7.0 | 0.00 | 0.00 | 0.00 | 90 | 1014.7 |